Pleasanton, TX

5:19 PM CDT on May 27, 2018 (GMT -0500)
Pleasanton Municipal

Weather History for KPEZ - March, 2014

Change the Weather History Date:

Wednesday, March 5, 2014

  Actual Average Record
Temperature  
Mean Temperature 50 °F -  
Max Temperature 61 °F 80 °F 90 °F (1991)
Min Temperature 39 °F 48 °F 30 °F (2007)
Degree Days  
Heating Degree Days 15    
Moisture  
Dew Point 41 °F    
Average Humidity 76    
Maximum Humidity 89    
Minimum Humidity 55    
Precipitation  
Precipitation 0.00 in - - ()
Sea Level Pressure  
Sea Level Pressure 30.04 in    
Wind  
Wind Speed 3 mph (East)    
Max Wind Speed 9 mph    
Max Gust Speed -    
Visibility 9 miles    
Events      
Averages and records for this station are not official NWS values.
T = Trace of Precipitation, MM = Missing Value Source: NWS Daily Summary

Daily Weather History Graph

Daily Weather History Graph

Search for Another Location

Airport or City:

Astronomy

Mar. 05, 2014 Rise Set
Actual Time 6:54 AM CST 6:36 PM CST
Civil Twilight 6:31 AM CST 7:00 PM CST
Nautical Twilight 6:03 AM CST 7:27 PM CST
Astronomical Twilight 5:36 AM CST 7:55 PM CST
Moon 9:45 AM CST (3/5) 11:20 PM CST (3/5)
Length of Visible Light 12h 28m
Length of Day
11h 41m
Waxing Crescent, 23% of the Moon is Illuminated
Mar 5
Waxing Crescent
Mar 8
First Quarter
Mar 16
Full
Mar 23
Last Quarter
Mar 30
New

Hourly Weather History & Observations

Time (CST) Temp. Windchill Dew Point Humidity Pressure Visibility Wind Dir Wind Speed Gust Speed Precip Events Conditions
12:15 AM 41.9 °F 40.0 °F 36.3 °F 81% 30.06 in 10.0 mi ENE 3.5 mph - N/A   Overcast
12:40 AM 42.1 °F 40.2 °F 36.1 °F 79% 30.06 in 10.0 mi ENE 3.5 mph - N/A   Overcast
12:55 AM 41.9 °F 40.0 °F 36.0 °F 79% 30.06 in 10.0 mi East 3.5 mph - N/A   Overcast
1:15 AM 40.3 °F 38.2 °F 35.6 °F 83% 30.05 in 10.0 mi East 3.5 mph - N/A   Scattered Clouds
1:35 AM 39.9 °F 37.8 °F 35.8 °F 85% 30.04 in 10.0 mi East 3.5 mph - N/A   Clear
1:55 AM 39.7 °F 37.6 °F 35.6 °F 85% 30.03 in 10.0 mi East 3.5 mph - N/A   Clear
2:15 AM 39.2 °F - 35.6 °F 87% 30.02 in 10.0 mi Calm Calm - N/A   Clear
2:35 AM 39.6 °F - 35.8 °F 86% 30.03 in 10.0 mi Calm Calm - N/A   Mostly Cloudy
2:55 AM 40.1 °F - 36.1 °F 86% 30.03 in 10.0 mi Calm Calm - N/A   Overcast
3:15 AM 40.5 °F - 36.0 °F 84% 30.03 in 10.0 mi Calm Calm - N/A   Overcast
3:35 AM 40.6 °F 38.6 °F 36.5 °F 85% 30.01 in 10.0 mi East 3.5 mph - N/A   Overcast
3:55 AM 40.6 °F - 36.1 °F 84% 30.02 in 10.0 mi Calm Calm - N/A   Overcast
4:15 AM 40.8 °F - 36.5 °F 85% 30.03 in 10.0 mi Calm Calm - N/A   Overcast
4:40 AM 41.0 °F - 36.5 °F 84% 30.02 in 10.0 mi Calm Calm - N/A   Overcast
4:55 AM 41.0 °F - 36.5 °F 84% 30.03 in 10.0 mi Calm Calm - N/A   Overcast
5:15 AM 41.0 °F 39.0 °F 36.5 °F 84% 30.02 in 10.0 mi ESE 3.5 mph - N/A   Overcast
5:35 AM 41.0 °F - 37.0 °F 86% 30.04 in 7.0 mi Calm Calm - N/A   Overcast
6:00 AM 40.8 °F - 37.0 °F 86% 30.05 in 7.0 mi Calm Calm - N/A   Overcast
6:15 AM 41.0 °F - 37.4 °F 87% 30.05 in 7.0 mi Calm Calm - N/A   Overcast
6:35 AM 40.8 °F - 37.6 °F 88% 30.06 in 7.0 mi Calm Calm - N/A   Overcast
6:55 AM 41.0 °F - 37.8 °F 88% 30.04 in 5.0 mi Calm Calm - N/A   Overcast
7:15 AM 41.0 °F - 37.9 °F 89% 30.04 in 7.0 mi Calm Calm - N/A   Overcast
7:35 AM 41.0 °F - 38.1 °F 89% 30.04 in 7.0 mi Calm Calm - N/A   Overcast
7:55 AM 41.2 °F - 37.9 °F 88% 30.06 in 7.0 mi Calm Calm - N/A   Overcast
8:15 AM 41.9 °F 40.0 °F 38.3 °F 87% 30.04 in 7.0 mi ENE 3.5 mph - N/A   Overcast
8:35 AM 42.3 °F 40.5 °F 38.3 °F 86% 30.04 in 7.0 mi ENE 3.5 mph - N/A   Overcast
8:55 AM 42.3 °F 40.5 °F 38.3 °F 86% 30.05 in 7.0 mi ENE 3.5 mph - N/A   Overcast
9:20 AM 43.0 °F 40.3 °F 38.7 °F 85% 30.05 in 7.0 mi ENE 4.6 mph - N/A   Overcast
9:35 AM 43.0 °F 40.3 °F 38.8 °F 85% 30.05 in 7.0 mi East 4.6 mph - N/A   Overcast
9:55 AM 43.5 °F 40.9 °F 39.0 °F 84% 30.06 in 7.0 mi ESE 4.6 mph - N/A   Overcast
10:20 AM 44.8 °F 43.3 °F 39.4 °F 81% 30.07 in 7.0 mi SSE 3.5 mph - N/A   Overcast
10:35 AM 46.0 °F 43.9 °F 39.4 °F 78% 30.06 in 10.0 mi ESE 4.6 mph - N/A   Overcast
10:55 AM 48.0 °F - 40.3 °F 75% 30.04 in 10.0 mi SE 6.9 mph - N/A   Mostly Cloudy
11:10 AM 50.2 °F - 40.8 °F 70% 30.05 in 10.0 mi SE 5.8 mph - N/A   Scattered Clouds
11:35 AM 51.3 °F - 40.8 °F 67% 30.04 in 10.0 mi ESE 3.5 mph - N/A   Mostly Cloudy
11:55 AM 53.4 °F - 41.4 °F 64% 30.03 in 10.0 mi SSE 5.8 mph - N/A   Overcast
12:15 PM 52.9 °F - 41.4 °F 65% 30.03 in 10.0 mi Calm Calm - N/A   Overcast
12:35 PM 52.5 °F - 41.5 °F 66% 30.03 in 10.0 mi Calm Calm - N/A   Overcast
12:55 PM 53.8 °F - 42.3 °F 65% 30.02 in 10.0 mi Calm Calm - N/A   Overcast
1:15 PM 54.0 °F - 42.8 °F 66% 30.01 in 10.0 mi Calm Calm - N/A   Overcast
1:35 PM 57.2 °F - 43.0 °F 59% 30.00 in 10.0 mi Calm Calm - N/A   Mostly Cloudy
1:55 PM 57.2 °F - 43.3 °F 60% 30.00 in 10.0 mi Calm Calm - N/A   Mostly Cloudy
2:15 PM 57.9 °F - 44.2 °F 60% 29.99 in 10.0 mi Calm Calm - N/A   Overcast
2:40 PM 59.0 °F - 44.6 °F 59% 29.99 in 5.0 mi SSE 4.6 mph - N/A   Haze
2:55 PM 58.5 °F - 44.6 °F 60% 29.98 in 10.0 mi Calm Calm - N/A   Overcast
3:15 PM 60.1 °F - 44.8 °F 57% 29.98 in 10.0 mi Calm Calm - N/A   Overcast
3:35 PM 58.5 °F - 44.6 °F 60% 29.98 in 10.0 mi Calm Calm - N/A   Overcast
3:55 PM 59.2 °F - 45.0 °F 59% 29.97 in 10.0 mi Calm Calm - N/A   Mostly Cloudy
4:15 PM 61.9 °F - 45.5 °F 55% 29.96 in 10.0 mi SE 8.1 mph - N/A   Mostly Cloudy
4:35 PM 61.9 °F - 45.5 °F 55% 29.97 in 10.0 mi ESE 4.6 mph - N/A   Scattered Clouds
4:55 PM 60.1 °F - 45.5 °F 59% 29.98 in 10.0 mi ESE 3.5 mph - N/A   Mostly Cloudy
5:15 PM 60.3 °F - 45.7 °F 59% 29.98 in 10.0 mi ESE 4.6 mph - N/A   Overcast
5:35 PM 59.5 °F - 45.7 °F 60% 29.99 in 10.0 mi East 3.5 mph - N/A   Overcast
5:55 PM 59.9 °F - 46.2 °F 61% 29.99 in 10.0 mi ESE 4.6 mph - N/A   Overcast
6:15 PM 59.2 °F - 46.4 °F 63% 30.00 in 10.0 mi East 5.8 mph - N/A   Overcast
6:35 PM 58.3 °F - 46.4 °F 65% 30.00 in 10.0 mi ESE 5.8 mph - N/A   Overcast
6:55 PM 57.2 °F - 46.4 °F 67% 30.01 in 10.0 mi East 4.6 mph - N/A   Mostly Cloudy
7:15 PM 56.5 °F - 46.4 °F 69% 30.02 in 10.0 mi East 3.5 mph - N/A   Mostly Cloudy
7:35 PM 56.5 °F - 46.4 °F 69% 30.02 in 10.0 mi East 8.1 mph - N/A   Scattered Clouds
7:55 PM 55.8 °F - 46.0 °F 70% 30.03 in 10.0 mi East 4.6 mph - N/A   Clear
8:15 PM 54.7 °F - 46.4 °F 74% 30.04 in 10.0 mi East 6.9 mph - N/A   Clear
8:35 PM 53.8 °F - 46.6 °F 77% 30.06 in 10.0 mi East 3.5 mph - N/A   Clear
9:00 PM 52.7 °F - 46.4 °F 79% 30.07 in 10.0 mi East 4.6 mph - N/A   Scattered Clouds
9:15 PM 52.2 °F - 46.4 °F 81% 30.09 in 10.0 mi NE 4.6 mph - N/A   Scattered Clouds
9:35 PM 50.9 °F - 45.7 °F 82% 30.10 in 10.0 mi NNE 4.6 mph - N/A   Clear
9:55 PM 49.8 °F - 45.1 °F 84% 30.11 in 10.0 mi NE 4.6 mph - N/A   Clear
10:15 PM 49.5 °F - 45.5 °F 86% 30.12 in 10.0 mi North 3.5 mph - N/A   Clear
10:35 PM 48.9 °F - 45.0 °F 86% 30.13 in 10.0 mi Calm Calm - N/A   Clear
10:55 PM 48.2 °F - 45.0 °F 89% 30.14 in 10.0 mi NNW 4.6 mph - N/A   Mostly Cloudy
11:20 PM 50.2 °F - 45.5 °F 84% 30.16 in 10.0 mi North 9.2 mph - N/A   Overcast
11:35 PM 50.2 °F - 45.1 °F 83% 30.16 in 10.0 mi North 6.9 mph - N/A   Overcast
11:55 PM 50.5 °F - 45.3 °F 82% 30.16 in 10.0 mi North 4.6 mph - N/A   Overcast